Oceanside, CA

9:14 AM PST on December 05, 2019 (GMT -0800)
Oceanside Municipal

Weather History for KOKB - November, 2019

Change the Weather History Date:

Wednesday, November 13, 2019

  Actual Average Record
Temperature  
Mean Temperature 60 °F 57 °F  
Max Temperature 69 °F 70 °F 87 °F (2016)
Min Temperature 52 °F 44 °F 33 °F (2015)
Degree Days  
Heating Degree Days 4 8  
Month to date heating degree days 71 87  
Since 1 July heating degree days 136 189  
Cooling Degree Days 0 0  
Month to date cooling degree days 0 0  
Year to date cooling degree days 590 416  
Growing Degree Days 10 (Base 50)    
Moisture  
Dew Point 54 °F    
Average Humidity 82    
Maximum Humidity 96    
Minimum Humidity 61    
Precipitation  
Precipitation 0.00 in 0.03 in 0.08 in (2003)
Month to date precipitation 0.00 0.56  
Year to date precipitation 11.10 11.04  
Sea Level Pressure  
Sea Level Pressure 30.00 in    
Wind  
Wind Speed 4 mph ()    
Max Wind Speed 12 mph    
Max Gust Speed 17 mph    
Visibility 3.2 miles    
Events Fog    
T = Trace of Precipitation, MM = Missing Value Source: Averaged Metar Reports

Daily Weather History Graph

Daily Weather History Graph

Search for Another Location

Airport or City:

Astronomy

Nov. 13, 2019 Rise Set
Actual Time 6:18 AM PST 4:48 PM PST
Civil Twilight 5:52 AM PST 5:14 PM PST
Nautical Twilight 5:22 AM PST 5:44 PM PST
Astronomical Twilight 4:53 AM PST 6:13 PM PST
Moon 5:56 PM PST (11/13) 7:15 AM PST (11/13)
Length of Visible Light 11h 22m
Length of Day
10h 30m
Full, 98% of the Moon is Illuminated
Nov 13
Full
Nov 19
Last Quarter
Nov 26
New
Dec 3
First Quarter
Dec 11
Full

Hourly Weather History & Observations

Time (PST) Temp. Dew Point Humidity Pressure Visibility Wind Dir Wind Speed Gust Speed Precip Events Conditions
12:22 AM 62.1 °F 57.0 °F 84% 30.01 in 2.5 mi NE 3.5 mph - N/A   Haze
12:52 AM 61.0 °F 55.9 °F 83% 30.00 in 2.5 mi NNE 5.8 mph - N/A   Haze
1:27 AM 60.1 °F 55.9 °F 86% 30.00 in 1.8 mi ENE 4.6 mph - N/A   Overcast
1:42 AM 59.0 °F 55.9 °F 90% 29.99 in 1.8 mi NE 4.6 mph - N/A   Overcast
1:52 AM 59.0 °F 55.9 °F 90% 29.99 in 1.8 mi NNE 4.6 mph - N/A   Overcast
2:52 AM 57.9 °F 55.0 °F 90% 29.98 in 1.5 mi ENE 3.5 mph - N/A   Overcast
3:32 AM 57.0 °F 54.0 °F 89% 29.98 in 0.8 mi East 3.5 mph - N/A   Overcast
3:52 AM 57.0 °F 54.0 °F 89% 29.98 in 0.8 mi Calm Calm - N/A   Overcast
4:05 AM 57.0 °F 54.0 °F 89% 29.98 in 1.0 mi ENE 3.5 mph - N/A   Overcast
4:16 AM 55.9 °F 53.1 °F 90% 29.98 in 0.8 mi NNE 3.5 mph - N/A   Overcast
4:34 AM 55.9 °F 53.1 °F 90% 29.98 in 1.0 mi Calm Calm - N/A   Overcast
4:52 AM 55.0 °F 52.0 °F 89% 29.99 in 0.8 mi Calm Calm - N/A   Overcast
5:00 AM 55.0 °F 52.0 °F 89% 29.99 in 1.0 mi ENE 4.6 mph - N/A   Overcast
5:22 AM 55.0 °F 51.1 °F 86% 29.99 in 2.0 mi East 3.5 mph - N/A   Overcast
5:32 AM 55.0 °F 51.1 °F 86% 29.99 in 1.2 mi East 4.6 mph - N/A   Overcast
5:52 AM 54.0 °F 51.1 °F 90% 30.00 in 0.8 mi ENE 3.5 mph - N/A   Overcast
6:52 AM 52.0 °F 50.0 °F 93% 30.01 in 0.2 mi NE 4.6 mph - N/A Fog Fog
7:06 AM 52.0 °F 48.9 °F 89% 30.02 in 2.0 mi NE 4.6 mph - N/A   Overcast
7:14 AM 52.0 °F 48.9 °F 89% 30.02 in 3.0 mi ENE 4.6 mph - N/A   Overcast
7:52 AM 53.1 °F 48.9 °F 86% 30.03 in 3.0 mi NE 4.6 mph - N/A   Overcast
8:04 AM 53.1 °F 50.0 °F 89% 30.02 in 1.8 mi NE 4.6 mph - N/A   Overcast
8:52 AM 54.0 °F 52.0 °F 93% 30.03 in 0.2 mi East 3.5 mph - N/A Fog Fog
9:16 AM 55.9 °F 52.0 °F 87% 30.03 in 2.0 mi Calm Calm - N/A   Overcast
9:27 AM 57.9 °F 52.0 °F 81% 30.03 in 4.0 mi Calm Calm - N/A   Haze
9:52 AM 64.9 °F 54.0 °F 68% 30.03 in 4.0 mi Calm Calm - N/A   Haze
10:52 AM 66.9 °F 55.0 °F 66% 30.01 in 4.0 mi WSW 10.4 mph - N/A   Haze
11:52 AM 69.1 °F 55.0 °F 61% 29.99 in 4.0 mi WSW 8.1 mph - N/A   Haze
12:52 PM 68.0 °F 55.0 °F 63% 29.97 in 3.0 mi WSW 6.9 mph - N/A   Haze
1:52 PM 66.9 °F 55.0 °F 66% 29.96 in 5.0 mi WSW 10.4 mph - N/A   Haze
2:52 PM 66.0 °F 55.9 °F 70% 29.96 in 8.0 mi West 9.2 mph - N/A   Clear
3:52 PM 64.0 °F 55.9 °F 75% 29.97 in 6.0 mi WSW 9.2 mph - N/A   Haze
4:52 PM 63.0 °F 55.9 °F 78% 29.99 in 7.0 mi West 4.6 mph - N/A   Overcast
5:52 PM 63.0 °F 55.9 °F 78% 30.00 in 6.0 mi WSW 4.6 mph - N/A   Haze
6:52 PM 63.0 °F 57.0 °F 81% 30.01 in 8.0 mi West 4.6 mph - N/A   Overcast
7:52 PM 64.0 °F 57.0 °F 78% 30.01 in 7.0 mi Calm Calm - N/A   Overcast
8:52 PM 63.0 °F 55.9 °F 78% 30.03 in 7.0 mi Calm Calm - N/A   Overcast
9:52 PM 63.0 °F 55.9 °F 78% 30.02 in 7.0 mi NNE 3.5 mph - N/A   Overcast
10:52 PM 61.0 °F 54.0 °F 78% 30.03 in 6.0 mi ENE 9.2 mph - N/A   Haze
11:52 PM 60.1 °F 54.0 °F 80% 30.03 in 5.0 mi ENE 5.8 mph - N/A   Haze